Flag for U.S.A. Weather past 2 weeks in Flint, Michigan, U.S.A.

Now
18 °F

Passing clouds.


Feels Like: 5 °F
Forecast: -11 / 13 °F
Wind: 12 mph from West

Location: Bishop International Airport

Current Time: Feb 27, 2015 at 4:56:05 PM

Latest Report: Feb 27, 2015 at 3:53 PM


Visibility: 10 mi

Pressure: 30.60 "Hg

Humidity: 49%

Dew point: 2 °F

Location of FlintLocation

Historic Weather in Flint — Graph

°F

Flint temperature yesterday

Maximum temperature yesterday: 13 °F (at 1:53 PM)
Minimum temperature yesterday: -4 °F (at 10:53 PM)
Average temperature yesterday: 8 °F

Past Weeks' High & Low Weather Summary

 TemperatureHumidityPressure
High28 °F (Feb 21, 3:53 PM)85% (Feb 14, 3:53 AM)30.71 "Hg (Feb 14, 3:53 AM)
Low-23 °F (Feb 20, 3:53 AM)35% (Feb 24, 11:53 AM)29.64 "Hg (Feb 24, 8:53 PM)
Average8 °F62%30.17 "Hg
* Reported Feb 12 3:53 PM — Feb 27 3:53 PM, Flint, Weather by CustomWeather, © 2015

Note: Actual official high and low records may vary slightly from our data, if they occured in-between our weather recording intervals... More about our weather records

Advertising

Flint weather history for previous 24 hours

 ConditionsComfort  
Time TempWeatherWind HumidityBarometerVisibility
3:53 PM
Fri, Feb 27
18 °FPassing clouds.12 mph49%30.60 "Hg10 mi
2:53 PM17 °FSunny.16 mph49%30.59 "Hg10 mi
1:53 PM17 °FSunny.8 mph45%30.59 "Hg10 mi
12:53 PM15 °FSunny.7 mph42%30.60 "Hg10 mi
11:53 AM12 °FSunny.7 mph46%30.60 "Hg10 mi
10:53 AM9 °FSunny.No wind58%30.59 "Hg10 mi
9:53 AM2 °FSunny.3 mph72%30.58 "Hg10 mi
8:53 AM-8 °FSunny.3 mph83%30.57 "Hg7 mi
7:53 AM-14 °FSunny.No wind74%30.55 "Hg6 mi
6:53 AM-14 °FClear.No wind71%30.53 "Hg8 mi
5:53 AM-13 °FClear.No wind67%30.50 "Hg9 mi
4:53 AM-12 °FClear.No wind70%30.48 "Hg8 mi
3:53 AM-13 °FClear.No wind74%30.46 "Hg9 mi
2:53 AM-9 °FClear.3 mph70%30.45 "Hg8 mi
1:53 AM-6 °FClear.No wind78%30.42 "Hg10 mi
12:53 AM-8 °FClear.No wind71%30.42 "Hg10 mi
11:53 PM
Thu, Feb 26
-3 °FClear.No wind75%30.40 "Hg10 mi
10:53 PM-4 °FClear.No windN/A30.40 "Hg10 mi
9:53 PM-1 °FClear.No wind71%30.38 "Hg10 mi
8:53 PM4 °FClear.No wind66%30.35 "Hg10 mi
7:53 PM7 °FClear.3 mph60%30.33 "Hg10 mi
6:53 PM10 °FClear.6 mph53%30.31 "Hg10 mi
6:04 PM11 °FSunny.9 mph53%30.24 "Hg9 mi
5:53 PM11 °FLight snow. Sunny.9 mph56%30.29 "Hg9 mi
4:53 PM13 °FLight snow. Broken clouds.13 mph54%30.27 "Hg3 mi
Weather by CustomWeather, © 2015

See weather overviewHow to use our weather pages